QPF
0.01 0.01 0.01 0.01 0.02 0.02 0.02 0.02 0.03 0.03 0.04 0.03 0.06 0.10 0.04 0.08 0.10 0.04 0.03 0.04 0.07 0.11 0.10 0.06 0.06 0.06 0.06 0.05 0.03 0.02 0.02 0.03 0.02 0.02 0.01 0.01 0.01 0.01 0.01 0.01 0.02 0.02 0.02 0.01
0.01 0.01 0.01 0.01 0.01 0.01 0.01 0.02 0.03 0.04 0.03 0.04 0.07 0.11 0.11 0.10 0.05 0.03 0.04 0.04 0.09 0.17 0.17 0.10 0.06 0.05 0.04 0.04 0.03 0.02 0.02 0.02 0.02 0.02 0.01 0.01 0.01 0.01 0.01 0.01 0.02 0.02 0.02 0.02
0.02 0.02 0.02 0.02 0.01 0.01 0.01 0.01 0.03 0.04 0.05 0.05 0.05 0.05 0.06 0.05 0.06 0.06 0.07 0.07 0.10 0.14 0.13 0.12 0.08 0.07 0.04 0.03 0.02 0.02 0.02 0.02 0.02 0.01 0.01 0.01 0.01 0.01 0.01 0.01 0.02 0.03 0.02 0.03
0.05 0.05 0.04 0.02 0.01 0.01 0.02 0.01 0.03 0.04 0.03 0.02 0.02 0.03 0.03 0.05 0.10 0.14 0.09 0.10 0.11 0.12 0.06 0.07 0.09 0.08 0.04 0.02 0.02 0.01 0.01 0.01 0.01 0.01 0.01 0.00 0.01 0.01 0.01 0.02 0.03 0.03 0.03 0.03
0.04 0.03 0.03 0.02 0.02 0.01 0.01 0.03 0.04 0.04 0.04 0.04 0.04 0.03 0.02 0.03 0.09 0.17 0.13 0.11 0.09 0.07 0.05 0.05 0.07 0.07 0.04 0.02 0.02 0.02 0.01 0.01 0.01 0.00 0.00 0.00 0.00 0.00 0.01 0.02 0.02 0.02 0.02 0.01
0.04 0.04 0.02 0.02 0.01 0.01 0.01 0.03 0.04 0.05 0.06 0.05 0.04 0.04 0.03 0.05 0.11 0.12 0.09 0.11 0.11 0.07 0.06 0.05 0.05 0.04 0.03 0.02 0.03 0.02 0.01 0.01 0.00 0.00 0.00 0.00 0.00 0.00 0.01 0.01 0.01 0.02 0.02 0.01
0.03 0.03 0.02 0.02 0.01 0.01 0.03 0.04 0.04 0.04 0.05 0.06 0.04 0.04 0.03 0.03 0.05 0.05 0.05 0.07 0.09 0.06 0.05 0.04 0.04 0.04 0.04 0.04 0.03 0.02 0.01 0.00 0.00 0.00 0.00 0.00 0.01 0.01 0.01 0.01 0.01 0.01 0.01 0.01
0.02 0.02 0.03 0.02 0.01 0.02 0.02 0.03 0.04 0.05 0.05 0.04 0.04 0.02 0.02 0.02 0.02 0.02 0.02 0.04 0.04 0.03 0.03 0.02 0.03 0.04 0.05 0.05 0.03 0.01 0.01 0.00 0.00 0.00 0.01 0.01 0.02 0.01 0.01 0.01 0.01 0.01 0.01 0.01
0.03 0.03 0.02 0.02 0.03 0.03 0.02 0.03 0.05 0.05 0.05 0.04 0.04 0.03 0.03 0.02 0.02 0.01 0.01 0.01 0.02 0.03 0.02 0.02 0.03 0.04 0.04 0.04 0.03 0.02 0.01 0.01 0.01 0.01 0.01 0.01 0.01 0.02 0.01 0.01 0.01 0.01 0.01 0.01
0.04 0.02 0.02 0.02 0.02 0.02 0.02 0.04 0.05 0.05 0.05 0.05 0.05 0.05 0.05 0.04 0.03 0.01 0.01 0.01 0.02 0.03 0.02 0.02 0.02 0.03 0.03 0.02 0.02 0.02 0.02 0.01 0.01 0.01 0.01 0.01 0.01 0.02 0.02 0.02 0.01 0.01 0.01 0.01
0.05 0.03 0.02 0.02 0.03 0.03 0.02 0.03 0.04 0.04 0.05 0.06 0.07 0.08 0.07 0.04 0.02 0.02 0.01 0.01 0.01 0.01 0.02 0.02 0.02 0.02 0.02 0.02 0.02 0.02 0.02 0.01 0.01 0.01 0.01 0.00 0.01 0.01 0.01 0.01 0.01 0.01 0.01 0.02
0.04 0.03 0.02 0.02 0.03 0.03 0.03 0.04 0.04 0.04 0.03 0.03 0.03 0.04 0.04 0.02 0.01 0.01 0.01 0.01 0.01 0.02 0.04 0.03 0.02 0.01 0.01 0.01 0.01 0.01 0.01 0.01 0.01 0.01 0.01 0.01 0.01 0.01 0.01 0.00 0.01 0.01 0.01 0.01
0.02 0.02 0.01 0.02 0.02 0.03 0.03 0.03 0.03 0.03 0.03 0.03 0.02 0.02 0.01 0.01 0.01 0.01 0.01 0.02 0.01 0.01 0.02 0.02 0.01 0.01 0.01 0.01 0.01 0.01 0.01 0.01 0.00 0.01 0.01 0.01 0.01 0.01 0.01 0.01 0.01 0.01 0.01 0.01
0.03 0.02 0.01 0.01 0.01 0.02 0.02 0.03 0.03 0.03 0.02 0.02 0.02 0.04 0.02 0.02 0.02 0.02 0.02 0.01 0.01 0.01 0.01 0.01 0.01 0.01 0.01 0.02 0.02 0.02 0.01 0.01 0.01 0.01 0.01 0.01 0.01 0.01 0.01 0.01 0.01 0.01 0.01 0.01
0.09 0.07 0.03 0.02 0.02 0.02 0.02 0.04 0.03 0.03 0.02 0.02 0.02 0.02 0.03 0.05 0.05 0.03 0.01 0.01 0.01 0.01 0.01 0.01 0.00 0.01 0.02 0.02 0.02 0.02 0.02 0.01 0.01 0.01 0.01 0.01 0.01 0.01 0.01 0.01 0.01 0.02 0.01 0.01
0.11 0.07 0.03 0.03 0.02 0.03 0.02 0.02 0.03 0.02 0.01 0.01 0.01 0.01 0.03 0.05 0.07 0.06 0.02 0.01 0.02 0.02 0.01 0.01 0.00 0.01 0.01 0.01 0.02 0.03 0.02 0.02 0.02 0.01 0.01 0.01 0.01 0.01 0.01 0.01 0.01 0.02 0.01 0.01
0.06 0.06 0.06 0.04 0.04 0.03 0.02 0.02 0.01 0.01 0.01 0.01 0.01 0.02 0.03 0.03 0.02 0.02 0.02 0.02 0.02 0.02 0.02 0.01 0.01 0.01 0.01 0.01 0.01 0.02 0.02 0.02 0.02 0.01 0.01 0.01 0.01 0.01 0.02 0.01 0.01 0.02 0.01 0.01
0.04 0.03 0.03 0.03 0.03 0.03 0.02 0.01 0.01 0.01 0.01 0.02 0.02 0.02 0.02 0.02 0.02 0.02 0.03 0.04 0.03 0.02 0.02 0.01 0.01 0.01 0.01 0.01 0.01 0.01 0.02 0.02 0.02 0.01 0.01 0.01 0.02 0.02 0.02 0.01 0.01 0.01 0.00 0.00
0.04 0.03 0.03 0.02 0.02 0.02 0.02 0.02 0.02 0.02 0.02 0.03 0.03 0.04 0.04 0.03 0.02 0.03 0.03 0.04 0.04 0.04 0.04 0.04 0.04 0.04 0.03 0.01 0.01 0.02 0.03 0.02 0.02 0.01 0.01 0.01 0.02 0.01 0.01 0.01 0.01 0.00 0.01 0.01
0.04 0.03 0.03 0.03 0.02 0.02 0.02 0.04 0.04 0.04 0.05 0.04 0.04 0.04 0.04 0.03 0.03 0.04 0.04 0.04 0.04 0.04 0.03 0.03 0.02 0.02 0.01 0.01 0.03 0.03 0.03 0.03 0.02 0.01 0.01 0.01 0.01 0.01 0.01 0.00 0.00 0.00 0.00 0.00
0.05 0.04 0.03 0.03 0.02 0.02 0.02 0.02 0.02 0.02 0.03 0.03 0.03 0.03 0.03 0.02 0.02 0.03 0.04 0.04 0.04 0.03 0.03 0.02 0.02 0.01 0.01 0.02 0.03 0.02 0.03 0.03 0.03 0.03 0.02 0.01 0.01 0.01 0.01 0.01 0.00 0.00 0.00 0.00
0.06 0.05 0.05 0.04 0.02 0.02 0.01 0.01 0.01 0.01 0.02 0.02 0.02 0.02 0.02 0.02 0.01 0.02 0.02 0.02 0.03 0.03 0.03 0.03 0.03 0.02 0.02 0.02 0.02 0.03 0.03 0.04 0.04 0.03 0.03 0.02 0.01 0.01 0.01 0.00 0.00 0.00 0.00 0.00
0.05 0.04 0.03 0.03 0.02 0.01 0.01 0.02 0.01 0.02 0.02 0.02 0.02 0.01 0.01 0.01 0.02 0.02 0.02 0.01 0.01 0.03 0.03 0.02 0.02 0.02 0.02 0.02 0.02 0.03 0.03 0.03 0.03 0.03 0.03 0.03 0.02 0.01 0.01 0.00 0.00 0.00 0.00 0.00
0.03 0.02 0.02 0.02 0.02 0.01 0.01 0.01 0.02 0.02 0.03 0.02 0.02 0.01 0.01 0.01 0.01 0.01 0.01 0.01 0.01 0.01 0.02 0.02 0.01 0.02 0.01 0.01 0.01 0.02 0.02 0.02 0.02 0.03 0.03 0.03 0.03 0.02 0.01 0.01 0.00 0.00 0.00 0.00
0.03 0.02 0.01 0.01 0.02 0.02 0.02 0.02 0.02 0.03 0.02 0.02 0.02 0.02 0.01 0.01 0.02 0.02 0.01 0.01 0.01 0.02 0.02 0.02 0.01 0.01 0.01 0.01 0.01 0.01 0.01 0.02 0.02 0.02 0.03 0.03 0.03 0.03 0.03 0.02 0.01 0.01 0.01 0.01
0.04 0.03 0.02 0.03 0.04 0.03 0.02 0.02 0.03 0.04 0.02 0.01 0.01 0.02 0.02 0.02 0.02 0.02 0.01 0.01 0.01 0.02 0.02 0.02 0.02 0.01 0.01 0.01 0.01 0.01 0.01 0.02 0.04 0.03 0.03 0.02 0.02 0.02 0.03 0.03 0.03 0.02 0.01 0.01
0.03 0.04 0.05 0.05 0.04 0.03 0.02 0.02 0.03 0.03 0.02 0.01 0.01 0.01 0.02 0.02 0.01 0.01 0.01 0.01 0.02 0.03 0.03 0.02 0.02 0.02 0.01 0.01 0.01 0.01 0.01 0.02 0.02 0.03 0.03 0.02 0.02 0.02 0.03 0.03 0.02 0.02 0.02 0.01
MSLP
1003.79 1004.03 1004.35 1004.76 1005.29 1005.97 1006.78 1007.71 1008.72 1009.75 1010.76 1011.68 1012.48 1013.13 1013.61 1013.95 1014.16 1014.29 1014.38 1014.47 1014.59 1014.76 1015.01 1015.33 1015.71 1016.14 1016.60 1017.07 1017.53 1017.95 1018.33 1018.66 1018.93 1019.17 1019.37 1019.55 1019.72 1019.89 1020.06 1020.22 1020.36 1020.48 1020.56 1020.59
1004.26 1004.46 1004.66 1004.90 1005.21 1005.63 1006.19 1006.89 1007.72 1008.65 1009.63 1010.61 1011.53 1012.34 1013.01 1013.54 1013.91 1014.17 1014.35 1014.49 1014.63 1014.82 1015.08 1015.42 1015.84 1016.33 1016.85 1017.38 1017.89 1018.34 1018.74 1019.06 1019.32 1019.53 1019.70 1019.85 1020.00 1020.16 1020.34 1020.52 1020.69 1020.84 1020.95 1021.01
1004.43 1004.60 1004.73 1004.85 1005.00 1005.23 1005.60 1006.12 1006.81 1007.65 1008.61 1009.63 1010.64 1011.58 1012.40 1013.07 1013.58 1013.95 1014.20 1014.38 1014.56 1014.77 1015.04 1015.41 1015.86 1016.39 1016.96 1017.54 1018.08 1018.58 1018.99 1019.31 1019.56 1019.75 1019.90 1020.03 1020.18 1020.34 1020.52 1020.72 1020.91 1021.09 1021.22 1021.30
1004.22 1004.36 1004.44 1004.48 1004.53 1004.65 1004.90 1005.32 1005.92 1006.72 1007.67 1008.71 1009.79 1010.82 1011.75 1012.53 1013.14 1013.59 1013.91 1014.15 1014.36 1014.60 1014.90 1015.29 1015.77 1016.34 1016.95 1017.56 1018.15 1018.66 1019.09 1019.42 1019.67 1019.85 1019.99 1020.12 1020.26 1020.42 1020.61 1020.82 1021.03 1021.22 1021.37 1021.45
1003.68 1003.77 1003.80 1003.79 1003.79 1003.85 1004.04 1004.41 1004.99 1005.77 1006.73 1007.80 1008.93 1010.03 1011.03 1011.89 1012.59 1013.11 1013.50 1013.79 1014.05 1014.33 1014.67 1015.10 1015.62 1016.22 1016.86 1017.50 1018.11 1018.64 1019.08 1019.42 1019.67 1019.85 1020.00 1020.13 1020.28 1020.45 1020.64 1020.86 1021.07 1021.26 1021.41 1021.50
1002.92 1002.92 1002.88 1002.82 1002.79 1002.84 1003.03 1003.41 1003.99 1004.79 1005.77 1006.88 1008.05 1009.20 1010.26 1011.18 1011.94 1012.53 1012.99 1013.35 1013.67 1014.01 1014.41 1014.88 1015.44 1016.07 1016.74 1017.40 1018.02 1018.56 1019.00 1019.35 1019.61 1019.80 1019.95 1020.10 1020.26 1020.44 1020.64 1020.86 1021.07 1021.26 1021.40 1021.47
1002.11 1001.97 1001.84 1001.72 1001.66 1001.71 1001.93 1002.34 1002.97 1003.81 1004.83 1005.98 1007.19 1008.37 1009.47 1010.44 1011.26 1011.92 1012.44 1012.88 1013.28 1013.69 1014.15 1014.68 1015.28 1015.94 1016.62 1017.29 1017.91 1018.45 1018.90 1019.25 1019.51 1019.72 1019.89 1020.05 1020.22 1020.42 1020.63 1020.85 1021.07 1021.25 1021.37 1021.44
1001.41 1001.09 1000.83 1000.63 1000.54 1000.61 1000.86 1001.32 1002.01 1002.91 1003.98 1005.16 1006.40 1007.61 1008.75 1009.76 1010.62 1011.34 1011.94 1012.45 1012.93 1013.42 1013.95 1014.54 1015.18 1015.86 1016.55 1017.22 1017.82 1018.35 1018.79 1019.13 1019.40 1019.62 1019.81 1019.99 1020.19 1020.40 1020.63 1020.85 1021.07 1021.24 1021.36 1021.42
1000.93 1000.43 1000.01 999.72 999.59 999.66 999.95 1000.48 1001.23 1002.18 1003.30 1004.52 1005.78 1007.01 1008.16 1009.20 1010.10 1010.87 1011.53 1012.12 1012.68 1013.24 1013.84 1014.47 1015.14 1015.84 1016.52 1017.17 1017.76 1018.27 1018.69 1019.02 1019.29 1019.52 1019.72 1019.93 1020.14 1020.38 1020.62 1020.86 1021.07 1021.25 1021.37 1021.42
1000.74 1000.04 999.48 999.10 998.93 999.00 999.32 999.90 1000.71 1001.71 1002.87 1004.11 1005.38 1006.62 1007.78 1008.83 1009.75 1010.56 1011.27 1011.92 1012.55 1013.17 1013.81 1014.48 1015.17 1015.86 1016.53 1017.16 1017.71 1018.19 1018.58 1018.90 1019.17 1019.40 1019.62 1019.84 1020.08 1020.33 1020.58 1020.83 1021.06 1021.24 1021.36 1021.42
1000.80 999.94 999.25 998.79 998.59 998.67 999.03 999.65 1000.50 1001.55 1002.73 1003.99 1005.26 1006.48 1007.63 1008.67 1009.59 1010.42 1011.16 1011.85 1012.52 1013.18 1013.85 1014.53 1015.22 1015.90 1016.54 1017.12 1017.64 1018.08 1018.44 1018.75 1019.01 1019.24 1019.47 1019.70 1019.95 1020.22 1020.49 1020.74 1020.97 1021.16 1021.29 1021.37
1001.03 1000.06 999.30 998.80 998.59 998.68 999.07 999.73 1000.62 1001.69 1002.88 1004.13 1005.37 1006.57 1007.68 1008.69 1009.60 1010.42 1011.17 1011.87 1012.54 1013.21 1013.89 1014.57 1015.24 1015.88 1016.48 1017.03 1017.50 1017.91 1018.24 1018.53 1018.78 1019.01 1019.24 1019.49 1019.75 1020.02 1020.29 1020.55 1020.79 1020.98 1021.12 1021.22
1001.33 1000.32 999.55 999.04 998.85 998.97 999.39 1000.09 1001.00 1002.07 1003.25 1004.46 1005.66 1006.81 1007.87 1008.83 1009.70 1010.49 1011.21 1011.90 1012.56 1013.22 1013.88 1014.53 1015.17 1015.77 1016.33 1016.83 1017.27 1017.64 1017.95 1018.22 1018.47 1018.70 1018.94 1019.19 1019.46 1019.73 1020.00 1020.26 1020.49 1020.68 1020.83 1020.94
1001.65 1000.67 999.93 999.47 999.31 999.48 999.93 1000.64 1001.55 1002.61 1003.75 1004.91 1006.05 1007.12 1008.11 1009.00 1009.81 1010.55 1011.23 1011.88 1012.52 1013.14 1013.77 1014.38 1014.97 1015.53 1016.05 1016.51 1016.91 1017.26 1017.56 1017.83 1018.07 1018.32 1018.56 1018.82 1019.08 1019.35 1019.62 1019.87 1020.09 1020.29 1020.44 1020.57
1001.98 1001.09 1000.42 1000.03 999.94 1000.15 1000.62 1001.33 1002.22 1003.23 1004.30 1005.38 1006.43 1007.42 1008.32 1009.14 1009.87 1010.55 1011.18 1011.78 1012.37 1012.96 1013.54 1014.10 1014.65 1015.17 1015.65 1016.07 1016.45 1016.78 1017.08 1017.35 1017.61 1017.86 1018.12 1018.38 1018.65 1018.92 1019.18 1019.42 1019.64 1019.84 1020.00 1020.14
1002.38 1001.61 1001.05 1000.74 1000.71 1000.94 1001.42 1002.10 1002.93 1003.87 1004.85 1005.83 1006.77 1007.65 1008.45 1009.18 1009.85 1010.46 1011.03 1011.59 1012.13 1012.67 1013.20 1013.72 1014.23 1014.70 1015.15 1015.55 1015.91 1016.24 1016.53 1016.82 1017.09 1017.36 1017.63 1017.91 1018.19 1018.46 1018.72 1018.97 1019.19 1019.38 1019.55 1019.71
1002.92 1002.28 1001.83 1001.60 1001.61 1001.86 1002.30 1002.92 1003.66 1004.49 1005.35 1006.20 1007.02 1007.79 1008.49 1009.14 1009.73 1010.28 1010.81 1011.32 1011.82 1012.31 1012.80 1013.28 1013.75 1014.19 1014.60 1014.97 1015.32 1015.65 1015.96 1016.25 1016.55 1016.84 1017.14 1017.43 1017.73 1018.01 1018.28 1018.53 1018.76 1018.96 1019.15 1019.33
1003.69 1003.17 1002.81 1002.64 1002.66 1002.88 1003.26 1003.77 1004.39 1005.07 1005.79 1006.50 1007.19 1007.84 1008.45 1009.01 1009.54 1010.05 1010.53 1011.01 1011.48 1011.94 1012.40 1012.84 1013.27 1013.67 1014.05 1014.41 1014.75 1015.07 1015.38 1015.69 1016.00 1016.31 1016.63 1016.95 1017.27 1017.57 1017.86 1018.12 1018.37 1018.60 1018.81 1019.02
1004.70 1004.28 1003.98 1003.83 1003.83 1003.98 1004.25 1004.63 1005.10 1005.62 1006.16 1006.72 1007.28 1007.81 1008.33 1008.84 1009.32 1009.79 1010.26 1010.72 1011.17 1011.61 1012.04 1012.45 1012.84 1013.21 1013.56 1013.89 1014.21 1014.51 1014.82 1015.14 1015.46 1015.78 1016.12 1016.46 1016.80 1017.12 1017.43 1017.73 1018.00 1018.26 1018.51 1018.76
1005.90 1005.55 1005.28 1005.12 1005.06 1005.10 1005.24 1005.46 1005.75 1006.09 1006.47 1006.88 1007.30 1007.74 1008.18 1008.63 1009.09 1009.55 1010.01 1010.46 1010.91 1011.34 1011.75 1012.14 1012.50 1012.83 1013.14 1013.44 1013.72 1014.01 1014.30 1014.60 1014.92 1015.25 1015.59 1015.95 1016.30 1016.65 1016.98 1017.31 1017.62 1017.91 1018.20 1018.48
1007.19 1006.87 1006.60 1006.39 1006.24 1006.16 1006.15 1006.20 1006.31 1006.47 1006.69 1006.95 1007.26 1007.61 1008.00 1008.42 1008.86 1009.32 1009.79 1010.26 1010.71 1011.14 1011.53 1011.90 1012.23 1012.52 1012.80 1013.05 1013.29 1013.54 1013.80 1014.08 1014.37 1014.69 1015.03 1015.39 1015.75 1016.11 1016.47 1016.82 1017.16 1017.49 1017.81 1018.13
1008.40 1008.09 1007.79 1007.52 1007.27 1007.06 1006.90 1006.78 1006.72 1006.73 1006.80 1006.94 1007.15 1007.44 1007.78 1008.19 1008.63 1009.10 1009.59 1010.07 1010.53 1010.96 1011.35 1011.70 1012.00 1012.26 1012.49 1012.69 1012.89 1013.09 1013.31 1013.55 1013.82 1014.12 1014.44 1014.79 1015.14 1015.51 1015.88 1016.24 1016.60 1016.96 1017.31 1017.66
1009.38 1009.06 1008.73 1008.39 1008.05 1007.73 1007.43 1007.17 1006.97 1006.84 1006.79 1006.83 1006.97 1007.21 1007.53 1007.93 1008.38 1008.86 1009.37 1009.87 1010.34 1010.77 1011.15 1011.48 1011.75 1011.98 1012.17 1012.33 1012.49 1012.65 1012.83 1013.03 1013.26 1013.52 1013.82 1014.14 1014.49 1014.84 1015.21 1015.58 1015.95 1016.32 1016.68 1017.05
1010.03 1009.70 1009.34 1008.94 1008.53 1008.11 1007.70 1007.34 1007.03 1006.80 1006.67 1006.64 1006.73 1006.94 1007.24 1007.63 1008.09 1008.58 1009.10 1009.60 1010.08 1010.51 1010.88 1011.19 1011.44 1011.64 1011.80 1011.93 1012.05 1012.17 1012.32 1012.49 1012.69 1012.92 1013.19 1013.48 1013.80 1014.14 1014.49 1014.85 1015.21 1015.58 1015.95 1016.32
1010.31 1009.98 1009.60 1009.17 1008.71 1008.23 1007.76 1007.32 1006.95 1006.66 1006.47 1006.40 1006.46 1006.64 1006.93 1007.31 1007.75 1008.25 1008.75 1009.25 1009.72 1010.13 1010.49 1010.78 1011.02 1011.19 1011.33 1011.44 1011.55 1011.65 1011.77 1011.92 1012.10 1012.31 1012.55 1012.82 1013.11 1013.42 1013.75 1014.09 1014.43 1014.79 1015.15 1015.51
1010.28 1009.96 1009.58 1009.14 1008.66 1008.16 1007.66 1007.20 1006.79 1006.47 1006.26 1006.17 1006.20 1006.35 1006.62 1006.97 1007.40 1007.86 1008.34 1008.81 1009.25 1009.64 1009.97 1010.24 1010.46 1010.62 1010.76 1010.86 1010.96 1011.07 1011.19 1011.33 1011.50 1011.69 1011.92 1012.17 1012.44 1012.72 1013.03 1013.34 1013.66 1013.99 1014.34 1014.69
1010.04 1009.75 1009.38 1008.96 1008.50 1008.00 1007.52 1007.06 1006.65 1006.33 1006.11 1006.00 1006.01 1006.14 1006.37 1006.68 1007.05 1007.47 1007.89 1008.31 1008.70 1009.04 1009.34 1009.58 1009.78 1009.94 1010.07 1010.18 1010.29 1010.41 1010.54 1010.70 1010.87 1011.07 1011.29 1011.52 1011.78 1012.04 1012.32 1012.61 1012.91 1013.22 1013.55 1013.89
Thickness
5705 5713 5714 5712 5714 5716 5707 5699 5688 5691 5691 5694 5698 5699 5699 5700 5698 5696 5695 5694 5692 5690 5687 5686 5686 5685 5684 5682 5681 5679 5675 5672 5670 5669 5667 5665 5663 5662 5661 5659 5658 5656 5654 5651
5700 5710 5710 5708 5713 5713 5710 5706 5700 5696 5692 5701 5702 5702 5698 5697 5696 5693 5693 5693 5691 5690 5687 5685 5684 5682 5681 5679 5677 5676 5673 5671 5669 5667 5665 5663 5661 5659 5657 5656 5654 5652 5650 5648
5681 5697 5698 5689 5704 5707 5705 5707 5700 5689 5693 5698 5695 5696 5695 5694 5694 5692 5691 5691 5690 5688 5686 5684 5683 5682 5679 5678 5676 5673 5671 5670 5668 5666 5663 5660 5659 5656 5654 5652 5650 5648 5646 5644
5673 5678 5669 5689 5711 5711 5704 5702 5703 5699 5698 5697 5696 5696 5695 5694 5692 5690 5690 5689 5688 5686 5684 5683 5683 5681 5680 5678 5675 5672 5669 5667 5665 5663 5660 5658 5655 5653 5651 5649 5647 5645 5643 5640
5664 5663 5671 5690 5703 5703 5694 5689 5697 5694 5694 5694 5695 5691 5688 5691 5691 5690 5689 5687 5686 5684 5683 5681 5680 5678 5677 5674 5672 5669 5667 5665 5663 5661 5658 5655 5652 5650 5649 5646 5644 5642 5640 5637
5665 5661 5659 5680 5701 5709 5697 5678 5692 5693 5689 5689 5687 5673 5676 5686 5687 5687 5686 5685 5683 5681 5680 5678 5676 5675 5672 5670 5667 5665 5665 5663 5661 5659 5655 5653 5650 5648 5646 5644 5641 5639 5636 5635
5661 5657 5666 5688 5701 5701 5675 5674 5688 5689 5687 5685 5680 5678 5681 5683 5683 5682 5681 5681 5680 5677 5675 5675 5674 5672 5668 5665 5663 5664 5663 5661 5659 5656 5653 5651 5648 5646 5644 5641 5638 5635 5633 5632
5654 5650 5658 5690 5691 5681 5679 5687 5687 5685 5684 5682 5680 5680 5679 5678 5677 5676 5675 5676 5675 5671 5670 5672 5671 5668 5664 5661 5662 5661 5659 5657 5655 5653 5651 5649 5644 5642 5640 5636 5633 5631 5629 5627
5655 5657 5674 5684 5684 5687 5686 5683 5683 5680 5680 5679 5676 5675 5675 5674 5672 5671 5671 5670 5668 5666 5664 5665 5665 5663 5660 5659 5658 5656 5653 5651 5649 5648 5646 5644 5641 5638 5635 5632 5629 5627 5625 5623
5654 5661 5670 5676 5679 5681 5681 5679 5680 5680 5678 5676 5672 5671 5670 5668 5666 5664 5664 5664 5662 5660 5658 5658 5659 5659 5657 5657 5655 5652 5648 5646 5644 5642 5641 5639 5637 5635 5632 5629 5626 5625 5622 5620
5647 5656 5662 5668 5671 5672 5674 5675 5675 5675 5674 5672 5668 5665 5663 5661 5659 5658 5657 5657 5657 5655 5654 5653 5654 5653 5653 5652 5650 5647 5643 5641 5639 5638 5636 5634 5632 5631 5630 5628 5627 5624 5622 5619
5638 5649 5649 5654 5664 5667 5666 5666 5667 5666 5664 5665 5664 5660 5658 5655 5654 5653 5652 5651 5650 5650 5649 5649 5649 5648 5648 5648 5646 5643 5639 5637 5635 5633 5632 5630 5628 5627 5627 5626 5626 5625 5623 5619
5644 5650 5651 5655 5659 5662 5660 5660 5660 5660 5658 5656 5656 5655 5653 5650 5649 5648 5646 5645 5644 5644 5644 5644 5643 5643 5644 5644 5642 5640 5637 5635 5633 5631 5629 5626 5625 5623 5621 5621 5622 5621 5620 5618
5644 5644 5643 5647 5649 5654 5656 5655 5655 5653 5652 5651 5650 5648 5647 5644 5643 5641 5640 5641 5640 5640 5639 5639 5639 5639 5640 5640 5638 5637 5634 5633 5631 5629 5627 5625 5624 5622 5620 5617 5616 5615 5615 5614
5636 5637 5637 5640 5643 5646 5648 5647 5645 5643 5643 5643 5643 5641 5640 5637 5636 5636 5637 5637 5636 5635 5634 5635 5634 5635 5637 5636 5634 5633 5631 5630 5629 5627 5625 5624 5622 5620 5618 5616 5614 5612 5611 5610
5626 5630 5631 5632 5633 5636 5638 5638 5636 5636 5636 5635 5635 5635 5635 5634 5632 5632 5632 5632 5629 5628 5629 5630 5630 5632 5633 5632 5630 5629 5628 5628 5627 5624 5622 5621 5619 5617 5615 5613 5611 5609 5608 5606
5616 5617 5620 5621 5624 5627 5629 5630 5630 5631 5630 5629 5629 5630 5630 5629 5627 5626 5626 5626 5626 5625 5626 5626 5627 5628 5629 5628 5627 5626 5625 5624 5623 5621 5620 5619 5617 5615 5613 5611 5610 5608 5607 5607
5612 5614 5616 5617 5618 5619 5622 5624 5625 5625 5624 5625 5626 5625 5623 5621 5619 5620 5621 5621 5620 5620 5621 5623 5623 5624 5624 5624 5623 5623 5622 5620 5619 5618 5617 5616 5614 5613 5612 5611 5610 5607 5605 5604
5608 5609 5612 5614 5616 5616 5616 5617 5618 5619 5620 5620 5619 5617 5617 5616 5616 5615 5616 5615 5614 5614 5616 5619 5619 5620 5619 5620 5621 5620 5618 5617 5616 5615 5614 5613 5612 5612 5611 5609 5607 5606 5604 5601
5603 5605 5607 5608 5611 5610 5611 5611 5613 5612 5613 5613 5612 5611 5610 5610 5610 5610 5610 5609 5610 5611 5614 5615 5615 5615 5616 5617 5617 5616 5615 5614 5613 5611 5611 5610 5609 5609 5608 5607 5606 5604 5601 5599
5596 5598 5599 5600 5602 5604 5605 5606 5606 5605 5606 5606 5605 5604 5605 5605 5605 5605 5603 5603 5606 5609 5610 5610 5610 5610 5612 5612 5612 5611 5610 5609 5608 5608 5607 5607 5606 5605 5605 5603 5602 5600 5598 5596
5588 5589 5591 5592 5592 5593 5596 5598 5599 5600 5600 5600 5600 5600 5599 5598 5599 5600 5600 5601 5603 5605 5605 5605 5606 5607 5608 5608 5607 5606 5606 5605 5605 5605 5604 5604 5602 5601 5600 5599 5597 5596 5594 5593
5580 5582 5583 5584 5585 5586 5589 5590 5592 5593 5594 5594 5594 5594 5593 5594 5594 5594 5594 5598 5600 5600 5600 5601 5602 5603 5603 5603 5602 5602 5602 5602 5602 5602 5602 5601 5600 5598 5597 5595 5593 5592 5590 5589
5573 5575 5576 5578 5579 5580 5581 5584 5585 5587 5588 5588 5589 5590 5589 5589 5590 5592 5594 5596 5597 5597 5597 5597 5597 5598 5598 5598 5598 5598 5598 5599 5599 5598 5598 5598 5596 5594 5592 5591 5589 5588 5587 5586
5567 5568 5570 5570 5570 5572 5575 5577 5579 5580 5581 5582 5583 5585 5586 5587 5587 5589 5590 5592 5592 5592 5592 5593 5593 5593 5593 5593 5593 5593 5594 5594 5594 5594 5593 5592 5591 5589 5588 5586 5585 5583 5583 5581
5560 5562 5564 5566 5567 5568 5570 5571 5572 5573 5575 5576 5577 5579 5581 5582 5584 5584 5585 5587 5588 5588 5587 5588 5588 5589 5589 5589 5589 5589 5589 5589 5589 5588 5587 5586 5585 5585 5583 5582 5581 5580 5579 5578
5554 5557 5558 5559 5562 5564 5565 5566 5567 5568 5570 5571 5572 5574 5576 5577 5578 5579 5580 5581 5581 5582 5582 5583 5583 5584 5584 5584 5584 5583 5583 5583 5583 5583 5582 5581 5580 5580 5579 5578 5576 5575 5575 5573